Time,TemperatureF,DewpointF,PressureIn,WindDirection,WindDirectionDegrees,WindSpeedMPH,WindSpeedGustMPH,Humidity,HourlyPrecipIn,Conditions,Clouds,dailyrainin,SoftwareType,DateUTC
2013-06-04 00:05:00,65.7,54.0,29.79,ESE,115,2.0,-999.0,66,0.00,,,0.00,Wunderground v.1.15,2013-06-04 05:05:00,
2013-06-04 00:10:00,65.7,54.0,29.79,SSE,165,2.0,-999.0,66,0.00,,,0.00,Wunderground v.1.15,2013-06-04 05:10:00,
2013-06-04 00:15:00,65.6,53.9,29.80,SE,125,2.0,-999.0,66,0.00,,,0.00,Wunderground v.1.15,2013-06-04 05:15:00,
2013-06-04 00:25:00,65.7,54.0,29.80,SSE,152,2.0,-999.0,66,0.00,,,0.00,Wunderground v.1.15,2013-06-04 05:25:00,
2013-06-04 00:35:00,65.7,54.0,29.82,South,174,2.0,-999.0,66,0.00,,,0.00,Wunderground v.1.15,2013-06-04 05:35:00,
2013-06-04 00:45:00,65.7,54.0,29.82,SSW,208,3.0,-999.0,66,0.00,,,0.00,Wunderground v.1.15,2013-06-04 05:45:00,
2013-06-04 00:50:00,65.7,54.0,29.82,SSW,207,2.0,-999.0,66,0.00,,,0.00,Wunderground v.1.15,2013-06-04 05:50:00,
2013-06-04 01:00:00,65.6,53.9,29.82,SE,126,2.0,-999.0,66,0.00,,,0.00,Wunderground v.1.15,2013-06-04 06:00:00,
2013-06-04 01:10:00,65.4,54.2,29.81,SE,124,2.0,-999.0,67,0.00,,,0.00,Wunderground v.1.15,2013-06-04 06:10:00,
2013-06-04 01:15:00,65.3,54.1,29.80,SSE,150,2.0,-999.0,67,0.00,,,0.00,Wunderground v.1.15,2013-06-04 06:15:00,
2013-06-04 01:25:00,65.0,54.2,29.80,East,98,2.0,-999.0,68,0.00,,,0.00,Wunderground v.1.15,2013-06-04 06:25:00,
2013-06-04 01:30:00,64.9,54.1,29.80,ESE,108,2.0,-999.0,68,0.00,,,0.00,Wunderground v.1.15,2013-06-04 06:30:00,
2013-06-04 01:40:00,64.7,54.3,29.79,SSE,147,3.0,-999.0,69,0.00,,,0.00,Wunderground v.1.15,2013-06-04 06:40:00,
2013-06-04 01:50:00,64.6,54.2,29.77,SE,126,4.0,-999.0,69,0.00,,,0.00,Wunderground v.1.15,2013-06-04 06:50:00,
2013-06-04 01:55:00,64.6,54.2,29.78,SE,139,5.0,-999.0,69,0.00,,,0.00,Wunderground v.1.15,2013-06-04 06:55:00,
2013-06-04 02:05:00,64.6,54.6,29.77,SE,132,3.0,-999.0,70,0.00,,,0.00,Wunderground v.1.15,2013-06-04 07:05:00,
2013-06-04 02:15:00,64.7,54.7,29.77,SSE,163,3.0,-999.0,70,0.00,,,0.00,Wunderground v.1.15,2013-06-04 07:15:00,
2013-06-04 02:25:00,64.7,54.7,29.76,ESE,117,4.0,-999.0,70,0.00,,,0.00,Wunderground v.1.15,2013-06-04 07:25:00,
2013-06-04 02:35:00,64.6,55.0,29.76,ENE,65,4.0,-999.0,71,0.00,,,0.00,Wunderground v.1.15,2013-06-04 07:35:00,
2013-06-04 02:45:00,64.3,54.7,29.74,SE,131,5.0,-999.0,71,0.00,,,0.00,Wunderground v.1.15,2013-06-04 07:45:00,
2013-06-04 02:55:00,64.2,55.0,29.74,SW,214,4.0,-999.0,72,0.00,,,0.00,Wunderground v.1.15,2013-06-04 07:55:00,
2013-06-04 03:05:00,64.0,55.2,29.76,SE,145,4.0,-999.0,73,0.00,,,0.00,Wunderground v.1.15,2013-06-04 08:05:00,
2013-06-04 03:15:00,64.0,55.2,29.80,SW,224,2.0,-999.0,73,0.00,,,0.00,Wunderground v.1.15,2013-06-04 08:15:00,
2013-06-04 03:25:00,63.9,55.1,29.79,ENE,75,2.0,-999.0,73,0.00,,,0.00,Wunderground v.1.15,2013-06-04 08:25:00,
2013-06-04 03:35:00,63.8,55.4,29.81,SE,141,1.0,-999.0,74,0.00,,,0.00,Wunderground v.1.15,2013-06-04 08:35:00,
2013-06-04 03:45:00,63.7,55.3,29.80,South,186,2.0,-999.0,74,0.00,,,0.00,Wunderground v.1.15,2013-06-04 08:45:00,
2013-06-04 03:50:00,63.6,55.5,29.79,SE,129,2.0,-999.0,75,0.00,,,0.00,Wunderground v.1.15,2013-06-04 08:50:00,
2013-06-04 03:55:00,63.5,55.4,29.80,SE,129,1.0,-999.0,75,0.00,,,0.00,Wunderground v.1.15,2013-06-04 08:55:00,
2013-06-04 04:05:00,63.3,55.6,29.79,SSE,152,1.0,-999.0,76,0.00,,,0.00,Wunderground v.1.15,2013-06-04 09:05:00,
2013-06-04 04:15:00,62.8,55.8,29.78,SE,124,1.0,-999.0,78,0.00,,,0.00,Wunderground v.1.15,2013-06-04 09:15:00,
2013-06-04 04:20:00,62.7,55.7,29.79,West,281,1.0,-999.0,78,0.00,,,0.00,Wunderground v.1.15,2013-06-04 09:20:00,
2013-06-04 04:30:00,62.6,56.0,29.81,WNW,300,1.0,-999.0,79,0.00,,,0.00,Wunderground v.1.15,2013-06-04 09:30:00,
2013-06-04 04:35:00,62.5,55.9,29.79,ESE,108,1.0,-999.0,79,0.00,,,0.00,Wunderground v.1.15,2013-06-04 09:35:00,
2013-06-04 04:45:00,62.4,55.8,29.77,ESE,115,1.0,-999.0,79,0.00,,,0.00,Wunderground v.1.15,2013-06-04 09:45:00,
2013-06-04 04:50:00,62.3,55.7,29.78,North,350,1.0,-999.0,79,0.00,,,0.00,Wunderground v.1.15,2013-06-04 09:50:00,
2013-06-04 04:55:00,62.2,56.0,29.78,NW,316,0.0,-999.0,80,0.00,,,0.00,Wunderground v.1.15,2013-06-04 09:55:00,
2013-06-04 05:05:00,61.9,56.0,29.78,ESE,107,0.0,-999.0,81,0.00,,,0.00,Wunderground v.1.15,2013-06-04 10:05:00,
2013-06-04 05:15:00,61.8,55.9,29.78,ESE,115,1.0,-999.0,81,0.00,,,0.00,Wunderground v.1.15,2013-06-04 10:15:00,
2013-06-04 05:20:00,61.7,55.8,29.77,East,81,1.0,-999.0,81,0.00,,,0.00,Wunderground v.1.15,2013-06-04 10:20:00,
2013-06-04 05:25:00,61.4,55.9,29.77,SE,138,1.0,-999.0,82,0.00,,,0.00,Wunderground v.1.15,2013-06-04 10:25:00,
2013-06-04 05:30:00,61.1,55.9,29.77,East,90,1.0,-999.0,83,0.00,,,0.00,Wunderground v.1.15,2013-06-04 10:30:00,
2013-06-04 05:35:00,61.0,55.8,29.77,ENE,77,1.0,-999.0,83,0.00,,,0.00,Wunderground v.1.15,2013-06-04 10:35:00,
2013-06-04 05:45:00,61.1,55.6,29.77,SE,136,2.0,-999.0,82,0.00,,,0.00,Wunderground v.1.15,2013-06-04 10:45:00,
2013-06-04 05:50:00,61.1,55.6,29.77,ENE,74,2.0,-999.0,82,0.00,,,0.00,Wunderground v.1.15,2013-06-04 10:50:00,
2013-06-04 06:00:00,61.0,55.8,29.77,ESE,108,2.0,-999.0,83,0.00,,,0.00,Wunderground v.1.15,2013-06-04 11:00:00,
2013-06-04 06:10:00,60.7,55.5,29.78,ENE,75,0.0,-999.0,83,0.00,,,0.00,Wunderground v.1.15,2013-06-04 11:10:00,
2013-06-04 06:15:00,60.5,55.6,29.79,East,79,0.0,-999.0,84,0.00,,,0.00,Wunderground v.1.15,2013-06-04 11:15:00,
2013-06-04 06:25:00,60.3,55.4,29.78,NE,37,0.0,-999.0,84,0.00,,,0.00,Wunderground v.1.15,2013-06-04 11:25:00,
2013-06-04 06:35:00,60.1,55.6,29.79,ENE,75,0.0,-999.0,85,0.00,,,0.00,Wunderground v.1.15,2013-06-04 11:35:00,
2013-06-04 06:45:00,60.1,55.6,29.79,SSE,165,0.0,-999.0,85,0.00,,,0.00,Wunderground v.1.15,2013-06-04 11:45:00,
2013-06-04 06:55:00,60.1,55.6,29.81,ENE,76,0.0,-999.0,85,0.00,,,0.00,Wunderground v.1.15,2013-06-04 11:55:00,
2013-06-04 07:05:00,60.0,55.5,29.81,ENE,76,0.0,-999.0,85,0.00,,,0.00,Wunderground v.1.15,2013-06-04 12:05:00,
2013-06-04 07:15:00,59.8,55.6,29.81,ENE,77,0.0,-999.0,86,0.00,,,0.00,Wunderground v.1.15,2013-06-04 12:15:00,
2013-06-04 07:20:00,59.9,55.7,29.81,ENE,68,0.0,-999.0,86,0.00,,,0.00,Wunderground v.1.15,2013-06-04 12:20:00,
2013-06-04 07:25:00,60.2,56.0,29.81,NE,47,0.0,-999.0,86,0.00,,,0.00,Wunderground v.1.15,2013-06-04 12:25:00,
2013-06-04 07:35:00,61.4,56.5,29.82,South,183,0.0,-999.0,84,0.00,,,0.00,Wunderground v.1.15,2013-06-04 12:35:00,
2013-06-04 07:40:00,62.0,56.8,29.82,East,95,0.0,-999.0,83,0.00,,,0.00,Wunderground v.1.15,2013-06-04 12:40:00,
2013-06-04 07:50:00,62.7,57.1,29.81,ESE,119,1.0,-999.0,82,0.00,,,0.00,Wunderground v.1.15,2013-06-04 12:50:00,
2013-06-04 07:55:00,63.1,57.2,29.81,SE,129,1.0,-999.0,81,0.00,,,0.00,Wunderground v.1.15,2013-06-04 12:55:00,
2013-06-04 08:00:00,63.7,57.4,29.81,SE,124,1.0,-999.0,80,0.00,,,0.00,Wunderground v.1.15,2013-06-04 13:00:00,
2013-06-04 08:10:00,63.6,57.3,29.82,NE,44,0.0,-999.0,80,0.00,,,0.00,Wunderground v.1.15,2013-06-04 13:10:00,
2013-06-04 08:20:00,64.1,57.8,29.82,ENE,74,0.0,-999.0,80,0.00,,,0.00,Wunderground v.1.15,2013-06-04 13:20:00,
2013-06-04 08:25:00,64.4,57.7,29.82,SE,131,1.0,-999.0,79,0.00,,,0.00,Wunderground v.1.15,2013-06-04 13:25:00,
2013-06-04 08:35:00,64.6,57.6,29.83,SE,141,0.0,-999.0,78,0.00,,,0.00,Wunderground v.1.15,2013-06-04 13:35:00,
2013-06-04 08:40:00,64.5,57.5,29.83,SSW,207,0.0,-999.0,78,0.00,,,0.00,Wunderground v.1.15,2013-06-04 13:40:00,
2013-06-04 08:50:00,64.4,57.7,29.83,SE,134,0.0,-999.0,79,0.00,,,0.00,Wunderground v.1.15,2013-06-04 13:50:00,
2013-06-04 09:00:00,64.5,57.8,29.83,ENE,65,0.0,-999.0,79,0.00,,,0.00,Wunderground v.1.15,2013-06-04 14:00:00,
2013-06-04 09:05:00,64.4,57.7,29.84,West,269,0.0,-999.0,79,0.00,,,0.00,Wunderground v.1.15,2013-06-04 14:05:00,
2013-06-04 09:10:00,64.4,58.1,29.84,West,271,0.0,-999.0,80,0.00,,,0.00,Wunderground v.1.15,2013-06-04 14:10:00,
2013-06-04 09:20:00,64.5,58.2,29.83,North,6,0.0,-999.0,80,0.00,,,0.00,Wunderground v.1.15,2013-06-04 14:20:00,
2013-06-04 09:25:00,64.3,58.3,29.83,NE,49,0.0,-999.0,81,0.00,,,0.00,Wunderground v.1.15,2013-06-04 14:25:00,
2013-06-04 09:35:00,63.8,59.2,29.85,WNW,298,0.0,-999.0,85,0.00,,,0.01,Wunderground v.1.15,2013-06-04 14:35:00,
2013-06-04 09:45:00,63.2,59.3,29.87,NW,314,1.0,-999.0,87,0.00,,,0.01,Wunderground v.1.15,2013-06-04 14:45:00,
2013-06-04 09:55:00,62.8,59.2,29.87,West,273,0.0,-999.0,88,0.00,,,0.01,Wunderground v.1.15,2013-06-04 14:55:00,
2013-06-04 10:05:00,62.5,58.9,29.87,WNW,302,0.0,-999.0,88,0.00,,,0.01,Wunderground v.1.15,2013-06-04 15:05:00,
2013-06-04 10:15:00,62.4,59.4,29.88,NW,311,1.0,-999.0,90,0.00,,,0.02,Wunderground v.1.15,2013-06-04 15:15:00,
2013-06-04 10:20:00,62.3,59.3,29.87,NW,310,0.0,-999.0,90,0.00,,,0.02,Wunderground v.1.15,2013-06-04 15:20:00,
2013-06-04 10:25:00,62.2,59.2,29.86,NW,311,0.0,-999.0,90,0.00,,,0.02,Wunderground v.1.15,2013-06-04 15:25:00,
2013-06-04 10:35:00,62.0,59.0,29.86,NNW,333,0.0,-999.0,90,0.10,,,0.03,Wunderground v.1.15,2013-06-04 15:35:00,
2013-06-04 10:45:00,62.2,59.5,29.84,North,351,0.0,-999.0,91,0.11,,,0.05,Wunderground v.1.15,2013-06-04 15:45:00,
2013-06-04 10:55:00,62.4,59.7,29.86,WNW,295,0.0,-999.0,91,0.04,,,0.05,Wunderground v.1.15,2013-06-04 15:55:00,
2013-06-04 11:00:00,62.6,59.9,29.87,WNW,302,0.0,-999.0,91,0.00,,,0.05,Wunderground v.1.15,2013-06-04 16:00:00,
2013-06-04 11:05:00,62.6,59.6,29.87,NW,305,0.0,-999.0,90,0.00,,,0.06,Wunderground v.1.15,2013-06-04 16:05:00,
2013-06-04 11:15:00,62.6,59.6,29.88,NW,318,1.0,-999.0,90,0.00,,,0.06,Wunderground v.1.15,2013-06-04 16:15:00,
2013-06-04 11:25:00,62.8,59.8,29.88,NW,319,1.0,-999.0,90,0.00,,,0.06,Wunderground v.1.15,2013-06-04 16:25:00,
2013-06-04 11:35:00,63.3,60.0,29.88,NW,314,0.0,-999.0,89,0.00,,,0.06,Wunderground v.1.15,2013-06-04 16:35:00,
2013-06-04 11:45:00,63.4,59.8,29.88,WNW,300,0.0,-999.0,88,0.00,,,0.06,Wunderground v.1.15,2013-06-04 16:45:00,
2013-06-04 11:55:00,63.3,59.4,29.88,WNW,300,0.0,-999.0,87,0.00,,,0.06,Wunderground v.1.15,2013-06-04 16:55:00,
2013-06-04 12:05:00,63.3,59.7,29.88,SE,132,0.0,-999.0,88,0.00,,,0.06,Wunderground v.1.15,2013-06-04 17:05:00,
2013-06-04 12:15:00,63.6,60.0,29.89,NW,304,0.0,-999.0,88,0.00,,,0.06,Wunderground v.1.15,2013-06-04 17:15:00,
2013-06-04 12:20:00,63.5,59.6,29.91,NW,308,0.0,-999.0,87,0.00,,,0.06,Wunderground v.1.15,2013-06-04 17:20:00,
2013-06-04 12:30:00,63.5,58.9,29.91,NW,317,1.0,-999.0,85,0.00,,,0.06,Wunderground v.1.15,2013-06-04 17:30:00,
2013-06-04 12:35:00,64.0,59.4,29.91,NW,326,1.0,-999.0,85,0.00,,,0.06,Wunderground v.1.15,2013-06-04 17:35:00,
2013-06-04 12:45:00,65.7,60.1,29.90,WNW,300,0.0,-999.0,82,0.00,,,0.06,Wunderground v.1.15,2013-06-04 17:45:00,
2013-06-04 12:50:00,66.6,59.5,29.90,NW,311,0.0,-999.0,78,0.00,,,0.06,Wunderground v.1.15,2013-06-04 17:50:00,
2013-06-04 13:00:00,67.0,59.2,29.90,NW,305,1.0,-999.0,76,0.00,,,0.06,Wunderground v.1.15,2013-06-04 18:00:00,
2013-06-04 13:05:00,66.8,58.6,29.89,NNW,328,1.0,-999.0,75,0.00,,,0.06,Wunderground v.1.15,2013-06-04 18:05:00,
2013-06-04 13:15:00,67.1,58.9,29.90,NW,312,1.0,-999.0,75,0.00,,,0.06,Wunderground v.1.15,2013-06-04 18:15:00,
2013-06-04 13:25:00,68.3,58.9,29.90,WNW,293,1.0,-999.0,72,0.00,,,0.06,Wunderground v.1.15,2013-06-04 18:25:00,
2013-06-04 13:30:00,68.6,59.2,29.89,NNW,338,1.0,-999.0,72,0.00,,,0.06,Wunderground v.1.15,2013-06-04 18:30:00,
2013-06-04 13:35:00,68.4,58.6,29.90,SSE,152,1.0,-999.0,71,0.00,,,0.06,Wunderground v.1.15,2013-06-04 18:35:00,
2013-06-04 13:45:00,68.9,58.3,29.90,NE,53,1.0,-999.0,69,0.00,,,0.06,Wunderground v.1.15,2013-06-04 18:45:00,
2013-06-04 13:50:00,69.2,59.4,29.90,NW,308,1.0,-999.0,71,0.00,,,0.06,Wunderground v.1.15,2013-06-04 18:50:00,
2013-06-04 13:55:00,69.8,59.2,29.90,East,99,1.0,-999.0,69,0.00,,,0.06,Wunderground v.1.15,2013-06-04 18:55:00,
2013-06-04 14:05:00,70.3,60.1,29.90,NW,310,1.0,-999.0,70,0.00,,,0.06,Wunderground v.1.15,2013-06-04 19:05:00,
2013-06-04 14:15:00,70.8,60.5,29.90,NNE,23,0.0,-999.0,70,0.00,,,0.06,Wunderground v.1.15,2013-06-04 19:15:00,
2013-06-04 14:25:00,72.0,59.6,29.90,NW,320,1.0,-999.0,65,0.00,,,0.06,Wunderground v.1.15,2013-06-04 19:25:00,
2013-06-04 14:30:00,72.2,59.8,29.90,NW,318,1.0,-999.0,65,0.00,,,0.06,Wunderground v.1.15,2013-06-04 19:30:00,
2013-06-04 14:35:00,72.4,58.6,29.90,NW,319,1.0,-999.0,62,0.00,,,0.06,Wunderground v.1.15,2013-06-04 19:35:00,
2013-06-04 14:45:00,72.7,59.8,29.90,WNW,293,1.0,-999.0,64,0.00,,,0.06,Wunderground v.1.15,2013-06-04 19:45:00,
2013-06-04 14:55:00,72.9,58.7,29.89,North,352,1.0,-999.0,61,0.00,,,0.06,Wunderground v.1.15,2013-06-04 19:55:00,
2013-06-04 15:05:00,74.4,59.6,29.89,WNW,302,0.0,-999.0,60,0.00,,,0.06,Wunderground v.1.15,2013-06-04 20:05:00,
2013-06-04 15:15:00,74.1,55.9,29.89,West,276,1.0,-999.0,53,0.00,,,0.06,Wunderground v.1.15,2013-06-04 20:15:00,
2013-06-04 15:25:00,75.3,60.0,29.89,ENE,66,1.0,-999.0,59,0.00,,,0.06,Wunderground v.1.15,2013-06-04 20:25:00,
2013-06-04 15:35:00,75.6,58.8,29.88,ESE,109,1.0,-999.0,56,0.00,,,0.06,Wunderground v.1.15,2013-06-04 20:35:00,
2013-06-04 15:45:00,75.1,57.8,29.88,ENE,58,1.0,-999.0,55,0.00,,,0.06,Wunderground v.1.15,2013-06-04 20:45:00,
2013-06-04 15:55:00,75.5,56.6,29.88,North,9,1.0,-999.0,52,0.00,,,0.06,Wunderground v.1.15,2013-06-04 20:55:00,
2013-06-04 16:05:00,75.5,57.2,29.88,WNW,293,1.0,-999.0,53,0.00,,,0.06,Wunderground v.1.15,2013-06-04 21:05:00,
2013-06-04 16:15:00,75.9,57.0,29.88,NNE,32,1.0,-999.0,52,0.00,,,0.06,Wunderground v.1.15,2013-06-04 21:15:00,
2013-06-04 16:25:00,76.1,54.4,29.88,NNW,335,1.0,-999.0,47,0.00,,,0.06,Wunderground v.1.15,2013-06-04 21:25:00,
2013-06-04 16:35:00,75.9,53.6,29.88,NNW,329,0.0,-999.0,46,0.00,,,0.06,Wunderground v.1.15,2013-06-04 21:35:00,
2013-06-04 16:45:00,76.1,52.6,29.88,NW,309,1.0,-999.0,44,0.00,,,0.06,Wunderground v.1.15,2013-06-04 21:45:00,
2013-06-04 16:50:00,75.8,54.1,29.88,WNW,286,1.0,-999.0,47,0.00,,,0.06,Wunderground v.1.15,2013-06-04 21:50:00,
2013-06-04 17:00:00,75.9,53.6,29.88,WNW,295,1.0,-999.0,46,0.00,,,0.06,Wunderground v.1.15,2013-06-04 22:00:00,
2013-06-04 17:05:00,75.8,53.5,29.88,WNW,291,1.0,-999.0,46,0.00,,,0.06,Wunderground v.1.15,2013-06-04 22:05:00,
2013-06-04 17:15:00,76.0,54.3,29.88,NW,325,1.0,-999.0,47,0.00,,,0.06,Wunderground v.1.15,2013-06-04 22:15:00,
2013-06-04 17:20:00,76.1,55.5,29.88,East,84,1.0,-999.0,49,0.00,,,0.06,Wunderground v.1.15,2013-06-04 22:20:00,
2013-06-04 17:25:00,75.8,53.5,29.88,NW,326,1.0,-999.0,46,0.00,,,0.06,Wunderground v.1.15,2013-06-04 22:25:00,
2013-06-04 17:35:00,75.6,55.1,29.88,NE,35,1.0,-999.0,49,0.00,,,0.06,Wunderground v.1.15,2013-06-04 22:35:00,
2013-06-04 17:45:00,75.5,54.4,29.89,NW,313,1.0,-999.0,48,0.00,,,0.06,Wunderground v.1.15,2013-06-04 22:45:00,
2013-06-04 17:55:00,75.4,55.5,29.89,NW,307,1.0,-999.0,50,0.00,,,0.06,Wunderground v.1.15,2013-06-04 22:55:00,
2013-06-04 18:05:00,75.2,54.2,29.89,NW,317,1.0,-999.0,48,0.00,,,0.06,Wunderground v.1.15,2013-06-04 23:05:00,
2013-06-04 18:15:00,75.1,54.6,29.89,NW,315,1.0,-999.0,49,0.00,,,0.06,Wunderground v.1.15,2013-06-04 23:15:00,
2013-06-04 18:20:00,74.9,53.9,29.89,NW,308,1.0,-999.0,48,0.00,,,0.06,Wunderground v.1.15,2013-06-04 23:20:00,
2013-06-04 18:25:00,74.8,54.4,29.89,NW,314,1.0,-999.0,49,0.00,,,0.06,Wunderground v.1.15,2013-06-04 23:25:00,
2013-06-04 18:35:00,74.0,53.6,29.90,NW,311,0.0,-999.0,49,0.00,,,0.06,Wunderground v.1.15,2013-06-04 23:35:00,
2013-06-04 18:45:00,73.3,53.5,29.90,NE,34,0.0,-999.0,50,0.00,,,0.06,Wunderground v.1.15,2013-06-04 23:45:00,
2013-06-04 18:55:00,72.9,53.2,29.90,WNW,290,1.0,-999.0,50,0.00,,,0.06,Wunderground v.1.15,2013-06-04 23:55:00,
2013-06-04 19:05:00,72.6,54.5,29.91,NW,308,0.0,-999.0,53,0.00,,,0.06,Wunderground v.1.15,2013-06-05 00:05:00,
2013-06-04 19:15:00,72.2,53.6,29.91,North,352,0.0,-999.0,52,0.00,,,0.06,Wunderground v.1.15,2013-06-05 00:15:00,
2013-06-04 19:25:00,71.8,52.7,29.91,WNW,291,0.0,-999.0,51,0.00,,,0.06,Wunderground v.1.15,2013-06-05 00:25:00,
2013-06-04 19:30:00,71.5,54.0,29.92,NW,319,0.0,-999.0,54,0.00,,,0.06,Wunderground v.1.15,2013-06-05 00:30:00,
2013-06-04 19:40:00,71.2,53.7,29.92,NW,306,0.0,-999.0,54,0.00,,,0.06,Wunderground v.1.15,2013-06-05 00:40:00,
2013-06-04 19:50:00,70.8,53.3,29.92,North,1,0.0,-999.0,54,0.00,,,0.06,Wunderground v.1.15,2013-06-05 00:50:00,
2013-06-04 20:00:00,70.3,53.4,29.93,NNW,327,0.0,-999.0,55,0.00,,,0.06,Wunderground v.1.15,2013-06-05 01:00:00,
2013-06-04 20:05:00,70.1,53.2,29.93,NNW,332,0.0,-999.0,55,0.00,,,0.06,Wunderground v.1.15,2013-06-05 01:05:00,
2013-06-04 20:15:00,69.5,53.1,29.93,NW,323,0.0,-999.0,56,0.00,,,0.06,Wunderground v.1.15,2013-06-05 01:15:00,
2013-06-04 20:25:00,69.1,53.7,29.94,WNW,299,0.0,-999.0,58,0.00,,,0.06,Wunderground v.1.15,2013-06-05 01:25:00,
2013-06-04 20:35:00,68.6,52.8,29.94,NNW,334,0.0,-999.0,57,0.00,,,0.06,Wunderground v.1.15,2013-06-05 01:35:00,
2013-06-04 20:45:00,68.3,52.9,29.94,NNW,330,0.0,-999.0,58,0.00,,,0.06,Wunderground v.1.15,2013-06-05 01:45:00,
2013-06-04 20:55:00,67.5,52.7,29.93,NE,40,0.0,-999.0,59,0.00,,,0.06,Wunderground v.1.15,2013-06-05 01:55:00,
2013-06-04 21:05:00,66.7,51.5,29.94,North,352,0.0,-999.0,58,0.00,,,0.06,Wunderground v.1.15,2013-06-05 02:05:00,
2013-06-04 21:15:00,66.1,51.4,29.93,NE,47,0.0,-999.0,59,0.00,,,0.06,Wunderground v.1.15,2013-06-05 02:15:00,
2013-06-04 21:20:00,65.7,51.4,29.93,NE,37,0.0,-999.0,60,0.00,,,0.06,Wunderground v.1.15,2013-06-05 02:20:00,
2013-06-04 21:25:00,65.4,51.1,29.94,NE,38,0.0,-999.0,60,0.00,,,0.06,Wunderground v.1.15,2013-06-05 02:25:00,
2013-06-04 21:30:00,65.1,51.3,29.95,NE,37,0.0,-999.0,61,0.00,,,0.06,Wunderground v.1.15,2013-06-05 02:30:00,
2013-06-04 21:35:00,64.9,51.6,29.95,NE,38,0.0,-999.0,62,0.00,,,0.06,Wunderground v.1.15,2013-06-05 02:35:00,
2013-06-04 21:45:00,63.9,51.9,29.95,NE,37,0.0,-999.0,65,0.00,,,0.06,Wunderground v.1.15,2013-06-05 02:45:00,
2013-06-04 21:50:00,63.2,52.1,29.95,NE,37,0.0,-999.0,67,0.00,,,0.06,Wunderground v.1.15,2013-06-05 02:50:00,
2013-06-04 21:55:00,62.7,52.0,29.96,NE,37,0.0,-999.0,68,0.00,,,0.06,Wunderground v.1.15,2013-06-05 02:55:00,
2013-06-04 22:05:00,62.3,52.4,29.96,NE,37,0.0,-999.0,70,0.00,,,0.06,Wunderground v.1.15,2013-06-05 03:05:00,
2013-06-04 22:15:00,62.6,51.9,29.98,NW,316,0.0,-999.0,68,0.00,,,0.06,Wunderground v.1.15,2013-06-05 03:15:00,
2013-06-04 22:25:00,62.6,51.9,29.98,NW,316,0.0,-999.0,68,0.00,,,0.06,Wunderground v.1.15,2013-06-05 03:25:00,
2013-06-04 22:30:00,62.6,51.9,29.99,NW,314,0.0,-999.0,68,0.00,,,0.06,Wunderground v.1.15,2013-06-05 03:30:00,
2013-06-04 22:35:00,62.9,51.8,30.00,NW,310,0.0,-999.0,67,0.00,,,0.06,Wunderground v.1.15,2013-06-05 03:35:00,
2013-06-04 22:45:00,63.1,51.6,30.01,NW,314,0.0,-999.0,66,0.00,,,0.06,Wunderground v.1.15,2013-06-05 03:45:00,
2013-06-04 22:55:00,62.6,52.3,30.01,NW,314,0.0,-999.0,69,0.00,,,0.06,Wunderground v.1.15,2013-06-05 03:55:00,
2013-06-04 23:00:00,62.3,52.0,30.01,NW,314,0.0,-999.0,69,0.00,,,0.06,Wunderground v.1.15,2013-06-05 04:00:00,
2013-06-04 23:05:00,61.9,52.0,30.00,NW,314,0.0,-999.0,70,0.00,,,0.06,Wunderground v.1.15,2013-06-05 04:05:00,
2013-06-04 23:10:00,61.5,51.6,30.00,NW,314,0.0,-999.0,70,0.00,,,0.06,Wunderground v.1.15,2013-06-05 04:10:00,
2013-06-04 23:15:00,61.1,51.6,30.00,NNE,23,0.0,-999.0,71,0.00,,,0.06,Wunderground v.1.15,2013-06-05 04:15:00,
2013-06-04 23:25:00,60.9,51.4,30.00,NW,319,0.0,-999.0,71,0.00,,,0.06,Wunderground v.1.15,2013-06-05 04:25:00,
2013-06-04 23:35:00,60.9,51.0,29.99,NW,309,0.0,-999.0,70,0.00,,,0.06,Wunderground v.1.15,2013-06-05 04:35:00,
2013-06-04 23:40:00,60.8,51.3,29.98,NNW,343,0.0,-999.0,71,0.00,,,0.06,Wunderground v.1.15,2013-06-05 04:40:00,
2013-06-04 23:50:00,60.7,51.2,29.99,NNW,333,0.0,-999.0,71,0.00,,,0.06,Wunderground v.1.15,2013-06-05 04:50:00,